User: anonymous   Login
Location: Brno
(49.2000°N, 16.6330°E)
Time: 17:23:51
(UTC+02:00)
Language:

RESURS DK-1 - Orbit

View from above orbital plane
View from above orbital plane
View from above satellite
View from above satellite

Ground track
Ground track

The orbit data is extracted from the following two-line orbital elements,

1 29228U 06021A   15212.38378470  .00000371  00000-0  36045-4 0  9996
2 29228 069.9374 044.7493 0007043 294.0772 065.9664 15.01555360504982
Epoch (UTC): 31 July 2015 09:12:38
Eccentricity: 0.0007043
inclination: 69.9374°
perigee height: 557 km
apogee height: 567 km
right ascension of ascending node: 44.7493°
argument of perigee: 294.0772°
revolutions per day: 15.01555360
mean anomaly at epoch: 65.9664°
orbit number at epoch: 50498

The dashed part of the orbit path shows where the satellite is in the earth's shadow,  

DLR